Retour au catalogue

STARLINK-3841

ActifCommunicationsVLEO
NORAD 52369·PAYLOAD·🇺🇸 United States

Lancé Apr 29, 2022 depuis Cape Canaveral Space Force Station

Loading…

Prochains Passages (prochaines 24 heures)

TLE

FraisSource: CelesTrak SupGP

Époque: Sep 15, 2026, 02:33 UTC

1 52369C 22045AQ  26258.10673611 -.00037800  00000+0 -10811-2 0  2586
2 52369  53.1592  50.6422 0001054  92.3904 249.6131 15.35428443    14

Suivez STARLINK-3841 en temps réel avec AllMySat

Download on the App Store